Regional Weather Roundup
Issued by NWS Charleston, SC

Current Version | Previous Version | Graphics & Text | Print | Product List | Glossary On
Versions: 1 2 3 4 5 6 7 8 9 10 11 12 13 14 15 16 17 18 19 20 21 22 23 24 25 26 27 28 29 30 31 32 33 34 35 36 37 38 39 40 41 42 43 44 45 46 47 48 49 50
000
ASUS42 KCHS 242012
RWRCHS

REGIONAL WEATHER ROUNDUP
NATIONAL WEATHER SERVICE CHARLESTON SC
400 PM EDT FRI APR 24 2015

NOTE: "FAIR" INDICATES FEW OR NO CLOUDS BELOW 12,000 FEET WITH NO
SIGNIFICANT WEATHER AND/OR OBSTRUCTIONS TO VISIBILITY.

NOT ALL STATIONS ARE QUALITY CONTROLLED BY THE NATIONAL
WEATHER SERVICE. USE DATA WITH CAUTION...ESPECIALLY
DEWPOINT OBSERVATIONS.

SCZ027-030-031-034>040-042>050-242100-
...SOUTHEAST SOUTH CAROLINA...

CITY           SKY/WX    TMP DP  RH WIND       PRES   REMARKS
N CHARLESTON   SUNNY     72  36  26 SE12      30.02F
WATERFRONT PRK   N/A     66 N/A N/A SE12        N/A
MOUNT PLEASANT FAIR      66  43  42 MISG      30.02F
PINOPOLIS      NOT AVBL
MONCKS CORNER  FAIR      72  32  23 N5        30.02F
SUMMERVILLE    FAIR      73  36  25 W5        30.03F
BEAUFORT MCAS  SUNNY     73  37  27 CALM      30.02F
BEAUFORT ARPT  FAIR      70  45  40 S8        30.02F
HILTON HEAD IS SUNNY     66  39  37 E5        30.05F
WALTERBORO     CLEAR     72  32  23 CALM      30.02F
ALLENDALE      FAIR      72  34  25 CALM      30.00F

...SOUTHERN MIDLANDS AND PEE DEE...

CITY           SKY/WX    TMP DP  RH WIND       PRES   REMARKS
GEORGETOWN     NOT AVBL
KINGSTREE      NOT AVBL
ORANGEBURG     SUNNY     71  32  23 VRB5      30.01F
BARNWELL       FAIR      73  34  23 CALM      30.02F
AIKEN          FAIR      72  30  21 SW5       30.04F
MANNING        FAIR      70  27  19 NW3       30.02S
COLUMBIA       SUNNY     73  29  19 VRB6      29.99F
SUMTER         SUNNY     71  30  22 NW5       29.99F
FLORENCE       MOSUNNY   72  29  20 VRB3      29.99F
MYRTLE BEACH   SUNNY     68  36  30 S12       30.02F
N MYRTLE BEACH SUNNY     67  39  35 SW12      29.99F

$$

GAZ063-065-086>088-099>101-113>116-118-119-134>141-150-242100-
...SOUTHEAST GEORGIA...

CITY           SKY/WX    TMP DP  RH WIND       PRES   REMARKS
SAVANNAH ARPT  MOSUNNY   74  39  28 SE13      30.01F
HUNTER AAF     SUNNY     71  43  36 E9        30.01F
FORT STEWART   SUNNY     73  44  35 SE8       29.99F
STATESBORO       N/A     74  41  30 S3        30.00F
SYLVANIA       CLEAR     74  41  30 CALM      30.01F
CLAXTON        FAIR      75  43  31 NE3       30.00F

...CSRA...CENTRAL AND FAR SOUTHEAST GEORGIA...

CITY           SKY/WX    TMP DP  RH WIND       PRES   REMARKS
THOMSON        SUNNY     75  40  29 SW6       30.04F
AUGUSTA-BUSH   SUNNY     73  37  27 VRB6      30.00F
AUGUSTA-DANIEL SUNNY     74  31  20 VRB3      30.01F
SWAINSBORO     NOT AVBL
VIDALIA        SUNNY     77  45  31 CALM      30.00F
EASTMAN        FAIR      79  46  31 SE3       30.01F
HAZLEHURST     FAIR      78  42  27 CALM      29.98F
ALMA           SUNNY     78  43  28 CALM      29.99F
WAYCROSS       SUNNY     82  52  35 CALM      29.98F
JESUP          FAIR      79  50  36 SE9       30.01F
BAXLEY         FAIR      81  45  28 E6        29.99F
BRUNSWICK      SUNNY     72  45  37 NE9G16    30.04F
SAINT SIMONS   SUNNY     69  48  47 E10       30.04F

$$

SCZ027-028-034-036>038-045-046-048>050-GAZ119-141-242100-
...LAKE AND SUPPLEMENTAL COASTAL OBSERVATIONS...

STATION/POSITION TIME  TEMP    WIND        PRES    WAVE   SWELL
                       AIR SEA DIR/SP/G            HT/PER HT/PER/DIR
                 (UTC) (F)     (DEG/KT/KT) (MB)    (FT/S) (FT/S/D)
UPR LAKE MARION  NOT AVBL
WINYAH BAY       NOT AVBL
LAKE MURRAY      1900   65     200/  7/  8 1016.6F
ACE BASIN NERRS  NOT AVBL
FORT PULASKI     1900   65 70   80/ 10/ 12 1018.2F
SAPELO ISLAND    1900   69      70/ 10     1018.0

$$

ANZ835-935-AMZ111-154-330-350-352-354-370-450-454-472-242100-
...C-MAN AND BUOY OBSERVATIONS...

STATION/POSITION TIME  TEMP    WIND        PRES    WAVE   SWELL
                       AIR SEA DIR/SP/G            HT/PER HT/PER/DIR
                 (UTC) (F)     (DEG/KT/KT) (MB)    (FT/S) (FT/S/D)
BUOY 41004       1950   63 71   60/ 10/ 12 1016.7F   5/ 7   5/ 7
BUOY 41008       1950   65 69   60/ 12/ 16 1017.2F   5/ 6   3/ 50/ 6
FOLLY BEACH CMAN 2000   62     110/  7/  9 1016.8F
CAPERS NEARSHORE 1908   62     110/ 10/ 14   N/A
FRIPP NEARSHORE  1900   65     110/ 10/ 12 1017.4F


STATION/POSITION TIME  TEMP    WIND        PRES    WAVE   SWELL
                       AIR SEA DIR/SP/G            HT/PER HT/PER/DIR
                 (UTC) (F)     (DEG/KT/KT) (MB)    (FT/S) (FT/S/D)
5E ST. MARYS GA  1921      69                N/A     4/ 6   2/110/15
FRYING PAN BUOY  1950   62 71   20/  2/  6 1017.0F   4/ 6   3/ 70/ 6
BUOY 41025       1950   55 74  350/  6/ 10 1015.2F   4/ 6   3/ 20/ 6
CAPE LOOKOUT NC  2000   62     240/  8/ 13 1014.7F
BUOY 41002       1950   65 71  350/ 14/ 17 1014.5F   7/ 7   5/300/ 7
BUOY 41010       1920   76 79   20/ 16/ 17 1014.7R
ST AUGUSTINE FL  2000   68 69  360/ 14/ 15 1017.3F


$$



USA.gov is the U.S. government's official web portal to all federal, state and local government web resources and services.